sat.trackr.live / text

‹ back to catalog

STARLINK-1266

NORAD 45383 · 2020-019Z

PAYLOAD ACTIVE UNKNOWN

§ Identity

Operator
Country
US
Launch date
2020-03-18
Launch site
AFETR
Launch vehicle
Mass (kg)
RCS (m²)

Purposes: comms

External: N2YO · Heavens-Above · Gunter

§ Orbital elements

Epoch: 2026-09-19T17:44:07.779552Z

Period
91.32 min
Inclination
53.0411°
Eccentricity
0.0002099
Mean motion
15.76795116 rev/d
Perigee alt
338.1 km
Apogee alt
340.9 km
Semi-major
6,717.7 km
B*
3.9932e-4
RAAN
263.5024°
Arg perigee
44.7964°
Mean anomaly
315.3225°
Rev number
36,054

§ Raw data

STARLINK-12661 45383U 20019Z   26262.73897893  .00065409  00000+0  39932-3 0  99992 45383  53.0411 263.5024 0002099  44.7964 315.3225 15.76795116360542

JSON: /api/v1/satellites/45383 · /tle

For live sub-satellite position, see the globe view (requires WebGL).

§ Visibility from observer

Set your observer location to see the next 7 days of passes ≥ 10°. The values pass through the URL so the page stays shareable.

No JS? Fill the form by hand. The geolocation button needs JavaScript.